Index of /20260504/WXO-DD/model_caps/3km/12/002
Name Last modified Size Description
Parent Directory -
20260504T12Z_MSC_CAPS_AbsoluteVorticity_IsbL-0250_RLatLon0.03_PT002H.grib2 2026-05-04 18:10 1.1M
20260504T12Z_MSC_CAPS_AbsoluteVorticity_IsbL-0500_RLatLon0.03_PT002H.grib2 2026-05-04 18:10 1.3M
20260504T12Z_MSC_CAPS_AbsoluteVorticity_IsbL-0700_RLatLon0.03_PT002H.grib2 2026-05-04 18:10 1.0M
20260504T12Z_MSC_CAPS_AbsoluteVorticity_IsbL-0850_RLatLon0.03_PT002H.grib2 2026-05-04 18:10 1.2M
20260504T12Z_MSC_CAPS_AbsoluteVorticity_IsbL-1000_RLatLon0.03_PT002H.grib2 2026-05-04 18:10 1.4M
20260504T12Z_MSC_CAPS_AirDensity_AGL-120m_RLatLon0.03_PT002H.grib2 2026-05-04 18:10 1.4M
20260504T12Z_MSC_CAPS_AirDensity_AGL-40m_RLatLon0.03_PT002H.grib2 2026-05-04 18:10 1.5M
20260504T12Z_MSC_CAPS_AirDensity_AGL-80m_RLatLon0.03_PT002H.grib2 2026-05-04 18:10 1.4M
20260504T12Z_MSC_CAPS_AirTemp_AGL-120m_RLatLon0.03_PT002H.grib2 2026-05-04 18:10 1.4M
20260504T12Z_MSC_CAPS_AirTemp_AGL-2m_RLatLon0.03_PT002H.grib2 2026-05-04 18:10 1.8M
20260504T12Z_MSC_CAPS_AirTemp_AGL-40m_RLatLon0.03_PT002H.grib2 2026-05-04 18:10 1.5M
20260504T12Z_MSC_CAPS_AirTemp_AGL-80m_RLatLon0.03_PT002H.grib2 2026-05-04 18:10 1.4M
20260504T12Z_MSC_CAPS_AirTemp_IsbL-0050_RLatLon0.03_PT002H.grib2 2026-05-04 18:10 705K
20260504T12Z_MSC_CAPS_AirTemp_IsbL-0100_RLatLon0.03_PT002H.grib2 2026-05-04 18:10 954K
20260504T12Z_MSC_CAPS_AirTemp_IsbL-0150_RLatLon0.03_PT002H.grib2 2026-05-04 18:10 739K
20260504T12Z_MSC_CAPS_AirTemp_IsbL-0175_RLatLon0.03_PT002H.grib2 2026-05-04 18:10 758K
20260504T12Z_MSC_CAPS_AirTemp_IsbL-0200_RLatLon0.03_PT002H.grib2 2026-05-04 18:10 781K
20260504T12Z_MSC_CAPS_AirTemp_IsbL-0225_RLatLon0.03_PT002H.grib2 2026-05-04 18:10 790K
20260504T12Z_MSC_CAPS_AirTemp_IsbL-0250_RLatLon0.03_PT002H.grib2 2026-05-04 18:10 783K
20260504T12Z_MSC_CAPS_AirTemp_IsbL-0275_RLatLon0.03_PT002H.grib2 2026-05-04 18:10 776K
20260504T12Z_MSC_CAPS_AirTemp_IsbL-0300_RLatLon0.03_PT002H.grib2 2026-05-04 18:10 763K
20260504T12Z_MSC_CAPS_AirTemp_IsbL-0350_RLatLon0.03_PT002H.grib2 2026-05-04 18:10 749K
20260504T12Z_MSC_CAPS_AirTemp_IsbL-0400_RLatLon0.03_PT002H.grib2 2026-05-04 18:10 754K
20260504T12Z_MSC_CAPS_AirTemp_IsbL-0450_RLatLon0.03_PT002H.grib2 2026-05-04 18:10 763K
20260504T12Z_MSC_CAPS_AirTemp_IsbL-0500_RLatLon0.03_PT002H.grib2 2026-05-04 18:10 776K
20260504T12Z_MSC_CAPS_AirTemp_IsbL-0550_RLatLon0.03_PT002H.grib2 2026-05-04 18:10 945K
20260504T12Z_MSC_CAPS_AirTemp_IsbL-0600_RLatLon0.03_PT002H.grib2 2026-05-04 18:10 962K
20260504T12Z_MSC_CAPS_AirTemp_IsbL-0650_RLatLon0.03_PT002H.grib2 2026-05-04 18:10 1.0M
20260504T12Z_MSC_CAPS_AirTemp_IsbL-0700_RLatLon0.03_PT002H.grib2 2026-05-04 18:10 1.0M
20260504T12Z_MSC_CAPS_AirTemp_IsbL-0750_RLatLon0.03_PT002H.grib2 2026-05-04 18:10 1.0M
20260504T12Z_MSC_CAPS_AirTemp_IsbL-0800_RLatLon0.03_PT002H.grib2 2026-05-04 18:10 1.0M
20260504T12Z_MSC_CAPS_AirTemp_IsbL-0850_RLatLon0.03_PT002H.grib2 2026-05-04 18:10 1.1M
20260504T12Z_MSC_CAPS_AirTemp_IsbL-0875_RLatLon0.03_PT002H.grib2 2026-05-04 18:10 1.1M
20260504T12Z_MSC_CAPS_AirTemp_IsbL-0900_RLatLon0.03_PT002H.grib2 2026-05-04 18:10 1.0M
20260504T12Z_MSC_CAPS_AirTemp_IsbL-0925_RLatLon0.03_PT002H.grib2 2026-05-04 18:10 1.1M
20260504T12Z_MSC_CAPS_AirTemp_IsbL-0950_RLatLon0.03_PT002H.grib2 2026-05-04 18:10 1.1M
20260504T12Z_MSC_CAPS_AirTemp_IsbL-0970_RLatLon0.03_PT002H.grib2 2026-05-04 18:10 1.1M
20260504T12Z_MSC_CAPS_AirTemp_IsbL-0985_RLatLon0.03_PT002H.grib2 2026-05-04 18:10 1.1M
20260504T12Z_MSC_CAPS_AirTemp_IsbL-1000_RLatLon0.03_PT002H.grib2 2026-05-04 18:10 1.0M
20260504T12Z_MSC_CAPS_AirTemp_IsbL-1015_RLatLon0.03_PT002H.grib2 2026-05-04 18:10 1.1M
20260504T12Z_MSC_CAPS_Albedo_Sfc_RLatLon0.03_PT002H.grib2 2026-05-04 18:10 2.7M
20260504T12Z_MSC_CAPS_CAPE_Sfc_RLatLon0.03_PT002H.grib2 2026-05-04 18:10 214K
20260504T12Z_MSC_CAPS_CloudWater_EAtm_RLatLon0.03_PT002H.grib2 2026-05-04 18:10 1.4M
20260504T12Z_MSC_CAPS_ConvectivePrecip-Accum_Sfc_RLatLon0.03_PT002H.grib2 2026-05-04 18:10 1.1M
20260504T12Z_MSC_CAPS_DewPointDepression_AGL-120m_RLatLon0.03_PT002H.grib2 2026-05-04 18:10 1.9M
20260504T12Z_MSC_CAPS_DewPointDepression_AGL-2m_RLatLon0.03_PT002H.grib2 2026-05-04 18:10 2.1M
20260504T12Z_MSC_CAPS_DewPointDepression_AGL-40m_RLatLon0.03_PT002H.grib2 2026-05-04 18:10 2.0M
20260504T12Z_MSC_CAPS_DewPointDepression_AGL-80m_RLatLon0.03_PT002H.grib2 2026-05-04 18:10 2.0M
20260504T12Z_MSC_CAPS_DewPointDepression_IsbL-0050_RLatLon0.03_PT002H.grib2 2026-05-04 18:10 11K
20260504T12Z_MSC_CAPS_DewPointDepression_IsbL-0100_RLatLon0.03_PT002H.grib2 2026-05-04 18:10 80K
20260504T12Z_MSC_CAPS_DewPointDepression_IsbL-0150_RLatLon0.03_PT002H.grib2 2026-05-04 18:10 85K
20260504T12Z_MSC_CAPS_DewPointDepression_IsbL-0175_RLatLon0.03_PT002H.grib2 2026-05-04 18:10 188K
20260504T12Z_MSC_CAPS_DewPointDepression_IsbL-0200_RLatLon0.03_PT002H.grib2 2026-05-04 18:10 364K
20260504T12Z_MSC_CAPS_DewPointDepression_IsbL-0225_RLatLon0.03_PT002H.grib2 2026-05-04 18:10 604K
20260504T12Z_MSC_CAPS_DewPointDepression_IsbL-0250_RLatLon0.03_PT002H.grib2 2026-05-04 18:10 791K
20260504T12Z_MSC_CAPS_DewPointDepression_IsbL-0275_RLatLon0.03_PT002H.grib2 2026-05-04 18:10 908K
20260504T12Z_MSC_CAPS_DewPointDepression_IsbL-0300_RLatLon0.03_PT002H.grib2 2026-05-04 18:10 972K
20260504T12Z_MSC_CAPS_DewPointDepression_IsbL-0350_RLatLon0.03_PT002H.grib2 2026-05-04 18:10 1.0M
20260504T12Z_MSC_CAPS_DewPointDepression_IsbL-0400_RLatLon0.03_PT002H.grib2 2026-05-04 18:10 1.0M
20260504T12Z_MSC_CAPS_DewPointDepression_IsbL-0450_RLatLon0.03_PT002H.grib2 2026-05-04 18:10 1.0M
20260504T12Z_MSC_CAPS_DewPointDepression_IsbL-0500_RLatLon0.03_PT002H.grib2 2026-05-04 18:10 1.0M
20260504T12Z_MSC_CAPS_DewPointDepression_IsbL-0550_RLatLon0.03_PT002H.grib2 2026-05-04 18:10 1.1M
20260504T12Z_MSC_CAPS_DewPointDepression_IsbL-0600_RLatLon0.03_PT002H.grib2 2026-05-04 18:10 1.1M
20260504T12Z_MSC_CAPS_DewPointDepression_IsbL-0650_RLatLon0.03_PT002H.grib2 2026-05-04 18:10 1.1M
20260504T12Z_MSC_CAPS_DewPointDepression_IsbL-0700_RLatLon0.03_PT002H.grib2 2026-05-04 18:10 1.1M
20260504T12Z_MSC_CAPS_DewPointDepression_IsbL-0750_RLatLon0.03_PT002H.grib2 2026-05-04 18:10 1.2M
20260504T12Z_MSC_CAPS_DewPointDepression_IsbL-0800_RLatLon0.03_PT002H.grib2 2026-05-04 18:10 1.2M
20260504T12Z_MSC_CAPS_DewPointDepression_IsbL-0850_RLatLon0.03_PT002H.grib2 2026-05-04 18:10 1.3M
20260504T12Z_MSC_CAPS_DewPointDepression_IsbL-0875_RLatLon0.03_PT002H.grib2 2026-05-04 18:10 1.3M
20260504T12Z_MSC_CAPS_DewPointDepression_IsbL-0900_RLatLon0.03_PT002H.grib2 2026-05-04 18:10 1.3M
20260504T12Z_MSC_CAPS_DewPointDepression_IsbL-0925_RLatLon0.03_PT002H.grib2 2026-05-04 18:10 1.3M
20260504T12Z_MSC_CAPS_DewPointDepression_IsbL-0950_RLatLon0.03_PT002H.grib2 2026-05-04 18:10 1.3M
20260504T12Z_MSC_CAPS_DewPointDepression_IsbL-0970_RLatLon0.03_PT002H.grib2 2026-05-04 18:10 1.3M
20260504T12Z_MSC_CAPS_DewPointDepression_IsbL-0985_RLatLon0.03_PT002H.grib2 2026-05-04 18:10 1.3M
20260504T12Z_MSC_CAPS_DewPointDepression_IsbL-1000_RLatLon0.03_PT002H.grib2 2026-05-04 18:10 1.3M
20260504T12Z_MSC_CAPS_DewPointDepression_IsbL-1015_RLatLon0.03_PT002H.grib2 2026-05-04 18:10 1.3M
20260504T12Z_MSC_CAPS_DewPoint_AGL-120m_RLatLon0.03_PT002H.grib2 2026-05-04 18:10 3.5M
20260504T12Z_MSC_CAPS_DewPoint_AGL-2m_RLatLon0.03_PT002H.grib2 2026-05-04 18:10 1.8M
20260504T12Z_MSC_CAPS_DewPoint_AGL-40m_RLatLon0.03_PT002H.grib2 2026-05-04 18:10 3.6M
20260504T12Z_MSC_CAPS_DewPoint_AGL-80m_RLatLon0.03_PT002H.grib2 2026-05-04 18:10 3.6M
20260504T12Z_MSC_CAPS_DownwardLongwaveRadiationFlux-Accum_Sfc_RLatLon0.03_PT002H.grib2 2026-05-04 18:10 2.3M
20260504T12Z_MSC_CAPS_DownwardShortwaveRadiationFlux-Accum_NTAtm_RLatLon0.03_PT002H.grib2 2026-05-04 18:10 381K
20260504T12Z_MSC_CAPS_DownwardShortwaveRadiationFlux-Accum_Sfc_RLatLon0.03_PT002H.grib2 2026-05-04 18:10 2.0M
20260504T12Z_MSC_CAPS_FreezingRain-Accum_Sfc_RLatLon0.03_PT002H.grib2 2026-05-04 18:10 131K
20260504T12Z_MSC_CAPS_GeopotentialHeight_IsbL-0050_RLatLon0.03_PT002H.grib2 2026-05-04 18:10 655K
20260504T12Z_MSC_CAPS_GeopotentialHeight_IsbL-0100_RLatLon0.03_PT002H.grib2 2026-05-04 18:10 767K
20260504T12Z_MSC_CAPS_GeopotentialHeight_IsbL-0150_RLatLon0.03_PT002H.grib2 2026-05-04 18:10 617K
20260504T12Z_MSC_CAPS_GeopotentialHeight_IsbL-0175_RLatLon0.03_PT002H.grib2 2026-05-04 18:10 733K
20260504T12Z_MSC_CAPS_GeopotentialHeight_IsbL-0200_RLatLon0.03_PT002H.grib2 2026-05-04 18:10 747K
20260504T12Z_MSC_CAPS_GeopotentialHeight_IsbL-0225_RLatLon0.03_PT002H.grib2 2026-05-04 18:10 758K
20260504T12Z_MSC_CAPS_GeopotentialHeight_IsbL-0250_RLatLon0.03_PT002H.grib2 2026-05-04 18:10 769K
20260504T12Z_MSC_CAPS_GeopotentialHeight_IsbL-0275_RLatLon0.03_PT002H.grib2 2026-05-04 18:10 781K
20260504T12Z_MSC_CAPS_GeopotentialHeight_IsbL-0300_RLatLon0.03_PT002H.grib2 2026-05-04 18:10 785K
20260504T12Z_MSC_CAPS_GeopotentialHeight_IsbL-0350_RLatLon0.03_PT002H.grib2 2026-05-04 18:10 788K
20260504T12Z_MSC_CAPS_GeopotentialHeight_IsbL-0400_RLatLon0.03_PT002H.grib2 2026-05-04 18:10 784K
20260504T12Z_MSC_CAPS_GeopotentialHeight_IsbL-0450_RLatLon0.03_PT002H.grib2 2026-05-04 18:10 774K
20260504T12Z_MSC_CAPS_GeopotentialHeight_IsbL-0500_RLatLon0.03_PT002H.grib2 2026-05-04 18:10 766K
20260504T12Z_MSC_CAPS_GeopotentialHeight_IsbL-0550_RLatLon0.03_PT002H.grib2 2026-05-04 18:10 643K
20260504T12Z_MSC_CAPS_GeopotentialHeight_IsbL-0600_RLatLon0.03_PT002H.grib2 2026-05-04 18:10 637K
20260504T12Z_MSC_CAPS_GeopotentialHeight_IsbL-0650_RLatLon0.03_PT002H.grib2 2026-05-04 18:10 809K
20260504T12Z_MSC_CAPS_GeopotentialHeight_IsbL-0700_RLatLon0.03_PT002H.grib2 2026-05-04 18:10 810K
20260504T12Z_MSC_CAPS_GeopotentialHeight_IsbL-0750_RLatLon0.03_PT002H.grib2 2026-05-04 18:10 811K
20260504T12Z_MSC_CAPS_GeopotentialHeight_IsbL-0800_RLatLon0.03_PT002H.grib2 2026-05-04 18:10 817K
20260504T12Z_MSC_CAPS_GeopotentialHeight_IsbL-0850_RLatLon0.03_PT002H.grib2 2026-05-04 18:10 827K
20260504T12Z_MSC_CAPS_GeopotentialHeight_IsbL-0875_RLatLon0.03_PT002H.grib2 2026-05-04 18:10 836K
20260504T12Z_MSC_CAPS_GeopotentialHeight_IsbL-0900_RLatLon0.03_PT002H.grib2 2026-05-04 18:10 842K
20260504T12Z_MSC_CAPS_GeopotentialHeight_IsbL-0925_RLatLon0.03_PT002H.grib2 2026-05-04 18:10 854K
20260504T12Z_MSC_CAPS_GeopotentialHeight_IsbL-0950_RLatLon0.03_PT002H.grib2 2026-05-04 18:10 856K
20260504T12Z_MSC_CAPS_GeopotentialHeight_IsbL-0970_RLatLon0.03_PT002H.grib2 2026-05-04 18:10 876K
20260504T12Z_MSC_CAPS_GeopotentialHeight_IsbL-0985_RLatLon0.03_PT002H.grib2 2026-05-04 18:10 689K
20260504T12Z_MSC_CAPS_GeopotentialHeight_IsbL-1000_RLatLon0.03_PT002H.grib2 2026-05-04 18:10 695K
20260504T12Z_MSC_CAPS_GeopotentialHeight_IsbL-1015_RLatLon0.03_PT002H.grib2 2026-05-04 18:10 702K
20260504T12Z_MSC_CAPS_GeopotentialHeight_Sfc_RLatLon0.03_PT002H.grib2 2026-05-04 18:10 1.0M
20260504T12Z_MSC_CAPS_IcePellets-Accum_Sfc_RLatLon0.03_PT002H.grib2 2026-05-04 18:10 3.1K
20260504T12Z_MSC_CAPS_LatentHeatNetFlux_Sfc_RLatLon0.03_PT002H.grib2 2026-05-04 18:10 1.4M
20260504T12Z_MSC_CAPS_LiftedIndex-MU-VT_IsbL-0500_RLatLon0.03_PT002H.grib2 2026-05-04 18:10 3.4M
20260504T12Z_MSC_CAPS_MixedLayerThickness_Sfc_RLatLon0.03_PT002H.nc 2026-05-04 18:14 16M
20260504T12Z_MSC_CAPS_NetLongwaveRadiationFlux-Accum_Sfc_RLatLon0.03_PT002H.grib2 2026-05-04 18:10 2.6M
20260504T12Z_MSC_CAPS_NetShortwaveRadiationFlux-Accum_Sfc_RLatLon0.03_PT002H.grib2 2026-05-04 18:10 2.0M
20260504T12Z_MSC_CAPS_PlanetaryBoundaryLayerHeight_Sfc_RLatLon0.03_PT002H.grib2 2026-05-04 18:10 2.6M
20260504T12Z_MSC_CAPS_Precip-Accum_Sfc_RLatLon0.03_PT002H.grib2 2026-05-04 18:10 2.8M
20260504T12Z_MSC_CAPS_PrecipRate_Sfc_RLatLon0.03_PT002H.grib2 2026-05-04 18:10 188K
20260504T12Z_MSC_CAPS_PrecipType-Instant_Sfc_RLatLon0.03_PT002H.grib2 2026-05-04 18:10 1.2M
20260504T12Z_MSC_CAPS_Pressure_MSL_RLatLon0.03_PT002H.grib2 2026-05-04 18:10 929K
20260504T12Z_MSC_CAPS_Pressure_Sfc_RLatLon0.03_PT002H.grib2 2026-05-04 18:10 1.2M
20260504T12Z_MSC_CAPS_RadiativeTemp_Sfc_RLatLon0.03_PT002H.grib2 2026-05-04 18:10 2.1M
20260504T12Z_MSC_CAPS_Rain-Accum_Sfc_RLatLon0.03_PT002H.grib2 2026-05-04 18:10 1.1M
20260504T12Z_MSC_CAPS_RelativeHumidity_AGL-120m_RLatLon0.03_PT002H.grib2 2026-05-04 18:10 2.7M
20260504T12Z_MSC_CAPS_RelativeHumidity_AGL-2m_RLatLon0.03_PT002H.grib2 2026-05-04 18:10 2.9M
20260504T12Z_MSC_CAPS_RelativeHumidity_AGL-40m_RLatLon0.03_PT002H.grib2 2026-05-04 18:10 2.8M
20260504T12Z_MSC_CAPS_RelativeHumidity_AGL-80m_RLatLon0.03_PT002H.grib2 2026-05-04 18:10 2.7M
20260504T12Z_MSC_CAPS_RelativeHumidity_IsbL-0050_RLatLon0.03_PT002H.grib2 2026-05-04 18:10 719K
20260504T12Z_MSC_CAPS_RelativeHumidity_IsbL-0100_RLatLon0.03_PT002H.grib2 2026-05-04 18:10 827K
20260504T12Z_MSC_CAPS_RelativeHumidity_IsbL-0150_RLatLon0.03_PT002H.grib2 2026-05-04 18:10 591K
20260504T12Z_MSC_CAPS_RelativeHumidity_IsbL-0175_RLatLon0.03_PT002H.grib2 2026-05-04 18:10 465K
20260504T12Z_MSC_CAPS_RelativeHumidity_IsbL-0200_RLatLon0.03_PT002H.grib2 2026-05-04 18:10 614K
20260504T12Z_MSC_CAPS_RelativeHumidity_IsbL-0225_RLatLon0.03_PT002H.grib2 2026-05-04 18:10 828K
20260504T12Z_MSC_CAPS_RelativeHumidity_IsbL-0250_RLatLon0.03_PT002H.grib2 2026-05-04 18:10 1.0M
20260504T12Z_MSC_CAPS_RelativeHumidity_IsbL-0275_RLatLon0.03_PT002H.grib2 2026-05-04 18:10 1.3M
20260504T12Z_MSC_CAPS_RelativeHumidity_IsbL-0300_RLatLon0.03_PT002H.grib2 2026-05-04 18:10 1.6M
20260504T12Z_MSC_CAPS_RelativeHumidity_IsbL-0350_RLatLon0.03_PT002H.grib2 2026-05-04 18:10 1.8M
20260504T12Z_MSC_CAPS_RelativeHumidity_IsbL-0400_RLatLon0.03_PT002H.grib2 2026-05-04 18:10 2.0M
20260504T12Z_MSC_CAPS_RelativeHumidity_IsbL-0450_RLatLon0.03_PT002H.grib2 2026-05-04 18:10 1.9M
20260504T12Z_MSC_CAPS_RelativeHumidity_IsbL-0500_RLatLon0.03_PT002H.grib2 2026-05-04 18:10 2.0M
20260504T12Z_MSC_CAPS_RelativeHumidity_IsbL-0550_RLatLon0.03_PT002H.grib2 2026-05-04 18:10 2.0M
20260504T12Z_MSC_CAPS_RelativeHumidity_IsbL-0600_RLatLon0.03_PT002H.grib2 2026-05-04 18:10 2.1M
20260504T12Z_MSC_CAPS_RelativeHumidity_IsbL-0650_RLatLon0.03_PT002H.grib2 2026-05-04 18:10 2.1M
20260504T12Z_MSC_CAPS_RelativeHumidity_IsbL-0700_RLatLon0.03_PT002H.grib2 2026-05-04 18:10 2.1M
20260504T12Z_MSC_CAPS_RelativeHumidity_IsbL-0750_RLatLon0.03_PT002H.grib2 2026-05-04 18:10 2.2M
20260504T12Z_MSC_CAPS_RelativeHumidity_IsbL-0800_RLatLon0.03_PT002H.grib2 2026-05-04 18:10 2.2M
20260504T12Z_MSC_CAPS_RelativeHumidity_IsbL-0850_RLatLon0.03_PT002H.grib2 2026-05-04 18:10 2.4M
20260504T12Z_MSC_CAPS_RelativeHumidity_IsbL-0875_RLatLon0.03_PT002H.grib2 2026-05-04 18:10 2.5M
20260504T12Z_MSC_CAPS_RelativeHumidity_IsbL-0900_RLatLon0.03_PT002H.grib2 2026-05-04 18:10 2.5M
20260504T12Z_MSC_CAPS_RelativeHumidity_IsbL-0925_RLatLon0.03_PT002H.grib2 2026-05-04 18:10 2.6M
20260504T12Z_MSC_CAPS_RelativeHumidity_IsbL-0950_RLatLon0.03_PT002H.grib2 2026-05-04 18:10 2.6M
20260504T12Z_MSC_CAPS_RelativeHumidity_IsbL-0970_RLatLon0.03_PT002H.grib2 2026-05-04 18:10 2.7M
20260504T12Z_MSC_CAPS_RelativeHumidity_IsbL-0985_RLatLon0.03_PT002H.grib2 2026-05-04 18:10 2.8M
20260504T12Z_MSC_CAPS_RelativeHumidity_IsbL-1000_RLatLon0.03_PT002H.grib2 2026-05-04 18:10 2.9M
20260504T12Z_MSC_CAPS_RelativeHumidity_IsbL-1015_RLatLon0.03_PT002H.grib2 2026-05-04 18:10 2.9M
20260504T12Z_MSC_CAPS_Runoff-Accum_Sfc_RLatLon0.03_PT002H.grib2 2026-05-04 18:10 164K
20260504T12Z_MSC_CAPS_SeaIceAreaFraction_Sfc_RLatLon0.03_PT002H.nc 2026-05-04 18:14 15M
20260504T12Z_MSC_CAPS_SeaIceCompressiveStrength_Sfc_RLatLon0.03_PT002H.nc 2026-05-04 18:14 15M
20260504T12Z_MSC_CAPS_SeaIceDivergence_Sfc_RLatLon0.03_PT002H.nc 2026-05-04 18:14 15M
20260504T12Z_MSC_CAPS_SeaIceInternalPressure_Sfc_RLatLon0.03_PT002H.nc 2026-05-04 18:14 15M
20260504T12Z_MSC_CAPS_SeaIceShear_Sfc_RLatLon0.03_PT002H.nc 2026-05-04 18:14 14M
20260504T12Z_MSC_CAPS_SeaIceSnowTemp_Sfc_RLatLon0.03_PT002H.nc 2026-05-04 18:14 14M
20260504T12Z_MSC_CAPS_SeaIceSnowVolume_Sfc_RLatLon0.03_PT002H.nc 2026-05-04 18:14 15M
20260504T12Z_MSC_CAPS_SeaIceVelocityX_Sfc_RLatLon0.03_PT002H.nc 2026-05-04 18:14 15M
20260504T12Z_MSC_CAPS_SeaIceVelocityY_Sfc_RLatLon0.03_PT002H.nc 2026-05-04 18:14 15M
20260504T12Z_MSC_CAPS_SeaIceVolume_Sfc_RLatLon0.03_PT002H.nc 2026-05-04 18:14 15M
20260504T12Z_MSC_CAPS_SeaSurfaceHeight_Sfc_RLatLon0.03_PT002H.nc 2026-05-04 18:14 16M
20260504T12Z_MSC_CAPS_SeaWaterSalinity_DBS-0.5m_RLatLon0.03_PT002H.nc 2026-05-04 18:14 16M
20260504T12Z_MSC_CAPS_SeaWaterSalinity_DBS-all_RLatLon0.03_PT002H.nc 2026-05-04 18:14 107M
20260504T12Z_MSC_CAPS_SeaWaterTemp_DBS-0.5m_RLatLon0.03_PT002H.nc 2026-05-04 18:14 14M
20260504T12Z_MSC_CAPS_SeaWaterTemp_DBS-all_RLatLon0.03_PT002H.nc 2026-05-04 18:14 88M
20260504T12Z_MSC_CAPS_SeaWaterVelocityX_DBS-0.5m_RLatLon0.03_PT002H.nc 2026-05-04 18:14 17M
20260504T12Z_MSC_CAPS_SeaWaterVelocityX_DBS-all_RLatLon0.03_PT002H.nc 2026-05-04 18:14 208M
20260504T12Z_MSC_CAPS_SeaWaterVelocityY_DBS-0.5m_RLatLon0.03_PT002H.nc 2026-05-04 18:14 18M
20260504T12Z_MSC_CAPS_SeaWaterVelocityY_DBS-all_RLatLon0.03_PT002H.nc 2026-05-04 18:14 215M
20260504T12Z_MSC_CAPS_SensibleHeatNetFlux_Sfc_RLatLon0.03_PT002H.grib2 2026-05-04 18:10 2.0M
20260504T12Z_MSC_CAPS_ShowalterIndex_IsbL-0500_RLatLon0.03_PT002H.grib2 2026-05-04 18:10 4.3M
20260504T12Z_MSC_CAPS_Snow-Accum_Sfc_RLatLon0.03_PT002H.grib2 2026-05-04 18:10 2.0M
20260504T12Z_MSC_CAPS_SnowDensity_Sfc_RLatLon0.03_PT002H.grib2 2026-05-04 18:10 1.1M
20260504T12Z_MSC_CAPS_SnowDepthWaterEquivalent_Sfc_RLatLon0.03_PT002H.grib2 2026-05-04 18:10 650K
20260504T12Z_MSC_CAPS_SnowDepth_Sfc_RLatLon0.03_PT002H.grib2 2026-05-04 18:10 1.1M
20260504T12Z_MSC_CAPS_SoilTemp_DBS-0to10cm_RLatLon0.03_PT002H.grib2 2026-05-04 18:10 1.1M
20260504T12Z_MSC_CAPS_SoilTemp_Sfc_RLatLon0.03_PT002H.grib2 2026-05-04 18:10 1.8M
20260504T12Z_MSC_CAPS_SoilVolumetricIceContent_Sfc_RLatLon0.03_PT002H.grib2 2026-05-04 18:10 1.3M
20260504T12Z_MSC_CAPS_SoilVolumetricWaterContent_DBS-0to10cm_RLatLon0.03_PT002H.grib2 2026-05-04 18:10 1.2M
20260504T12Z_MSC_CAPS_SoilVolumetricWaterContent_DBS-0to1cm_RLatLon0.03_PT002H.grib2 2026-05-04 18:10 1.6M
20260504T12Z_MSC_CAPS_SpecificHumidity_AGL-120m_RLatLon0.03_PT002H.grib2 2026-05-04 18:10 1.7M
20260504T12Z_MSC_CAPS_SpecificHumidity_AGL-2m_RLatLon0.03_PT002H.grib2 2026-05-04 18:10 1.7M
20260504T12Z_MSC_CAPS_SpecificHumidity_AGL-40m_RLatLon0.03_PT002H.grib2 2026-05-04 18:10 1.8M
20260504T12Z_MSC_CAPS_SpecificHumidity_AGL-80m_RLatLon0.03_PT002H.grib2 2026-05-04 18:10 1.7M
20260504T12Z_MSC_CAPS_SpecificHumidity_IsbL-0050_RLatLon0.03_PT002H.grib2 2026-05-04 18:10 856K
20260504T12Z_MSC_CAPS_SpecificHumidity_IsbL-0100_RLatLon0.03_PT002H.grib2 2026-05-04 18:10 923K
20260504T12Z_MSC_CAPS_SpecificHumidity_IsbL-0150_RLatLon0.03_PT002H.grib2 2026-05-04 18:10 973K
20260504T12Z_MSC_CAPS_SpecificHumidity_IsbL-0175_RLatLon0.03_PT002H.grib2 2026-05-04 18:10 953K
20260504T12Z_MSC_CAPS_SpecificHumidity_IsbL-0200_RLatLon0.03_PT002H.grib2 2026-05-04 18:10 831K
20260504T12Z_MSC_CAPS_SpecificHumidity_IsbL-0225_RLatLon0.03_PT002H.grib2 2026-05-04 18:10 796K
20260504T12Z_MSC_CAPS_SpecificHumidity_IsbL-0250_RLatLon0.03_PT002H.grib2 2026-05-04 18:10 1.0M
20260504T12Z_MSC_CAPS_SpecificHumidity_IsbL-0275_RLatLon0.03_PT002H.grib2 2026-05-04 18:10 1.0M
20260504T12Z_MSC_CAPS_SpecificHumidity_IsbL-0300_RLatLon0.03_PT002H.grib2 2026-05-04 18:10 1.0M
20260504T12Z_MSC_CAPS_SpecificHumidity_IsbL-0350_RLatLon0.03_PT002H.grib2 2026-05-04 18:10 894K
20260504T12Z_MSC_CAPS_SpecificHumidity_IsbL-0400_RLatLon0.03_PT002H.grib2 2026-05-04 18:10 887K
20260504T12Z_MSC_CAPS_SpecificHumidity_IsbL-0450_RLatLon0.03_PT002H.grib2 2026-05-04 18:10 1.0M
20260504T12Z_MSC_CAPS_SpecificHumidity_IsbL-0500_RLatLon0.03_PT002H.grib2 2026-05-04 18:10 955K
20260504T12Z_MSC_CAPS_SpecificHumidity_IsbL-0550_RLatLon0.03_PT002H.grib2 2026-05-04 18:10 1.1M
20260504T12Z_MSC_CAPS_SpecificHumidity_IsbL-0600_RLatLon0.03_PT002H.grib2 2026-05-04 18:10 1.3M
20260504T12Z_MSC_CAPS_SpecificHumidity_IsbL-0650_RLatLon0.03_PT002H.grib2 2026-05-04 18:10 1.3M
20260504T12Z_MSC_CAPS_SpecificHumidity_IsbL-0700_RLatLon0.03_PT002H.grib2 2026-05-04 18:10 1.1M
20260504T12Z_MSC_CAPS_SpecificHumidity_IsbL-0750_RLatLon0.03_PT002H.grib2 2026-05-04 18:10 1.2M
20260504T12Z_MSC_CAPS_SpecificHumidity_IsbL-0800_RLatLon0.03_PT002H.grib2 2026-05-04 18:10 1.3M
20260504T12Z_MSC_CAPS_SpecificHumidity_IsbL-0850_RLatLon0.03_PT002H.grib2 2026-05-04 18:10 1.6M
20260504T12Z_MSC_CAPS_SpecificHumidity_IsbL-0875_RLatLon0.03_PT002H.grib2 2026-05-04 18:10 1.6M
20260504T12Z_MSC_CAPS_SpecificHumidity_IsbL-0900_RLatLon0.03_PT002H.grib2 2026-05-04 18:10 1.7M
20260504T12Z_MSC_CAPS_SpecificHumidity_IsbL-0925_RLatLon0.03_PT002H.grib2 2026-05-04 18:10 1.8M
20260504T12Z_MSC_CAPS_SpecificHumidity_IsbL-0950_RLatLon0.03_PT002H.grib2 2026-05-04 18:10 1.8M
20260504T12Z_MSC_CAPS_SpecificHumidity_IsbL-0970_RLatLon0.03_PT002H.grib2 2026-05-04 18:10 1.9M
20260504T12Z_MSC_CAPS_SpecificHumidity_IsbL-0985_RLatLon0.03_PT002H.grib2 2026-05-04 18:10 1.9M
20260504T12Z_MSC_CAPS_SpecificHumidity_IsbL-1000_RLatLon0.03_PT002H.grib2 2026-05-04 18:10 1.6M
20260504T12Z_MSC_CAPS_SpecificHumidity_IsbL-1015_RLatLon0.03_PT002H.grib2 2026-05-04 18:10 1.7M
20260504T12Z_MSC_CAPS_SpecificHumidity_Sfc_RLatLon0.03_PT002H.grib2 2026-05-04 18:10 2.0M
20260504T12Z_MSC_CAPS_StormRelativeHelicity_Sfc_RLatLon0.03_PT002H.grib2 2026-05-04 18:10 3.3M
20260504T12Z_MSC_CAPS_Thickness_IsbL-1000to0500_RLatLon0.03_PT002H.grib2 2026-05-04 18:10 467K
20260504T12Z_MSC_CAPS_TotalCloudCover_Sfc_RLatLon0.03_PT002H.grib2 2026-05-04 18:10 3.2M
20260504T12Z_MSC_CAPS_TurboclineDepth_Sfc_RLatLon0.03_PT002H.nc 2026-05-04 18:14 16M
20260504T12Z_MSC_CAPS_UpwardLongwaveRadiationFlux_NTAtm_RLatLon0.03_PT002H.grib2 2026-05-04 18:10 2.7M
20260504T12Z_MSC_CAPS_UpwardShortwaveRadiationFlux_NTAtm_RLatLon0.03_PT002H.grib2 2026-05-04 18:10 2.3M
20260504T12Z_MSC_CAPS_VerticalVelocity_IsbL-0250_RLatLon0.03_PT002H.grib2 2026-05-04 18:10 929K
20260504T12Z_MSC_CAPS_VerticalVelocity_IsbL-0500_RLatLon0.03_PT002H.grib2 2026-05-04 18:10 879K
20260504T12Z_MSC_CAPS_VerticalVelocity_IsbL-0700_RLatLon0.03_PT002H.grib2 2026-05-04 18:10 947K
20260504T12Z_MSC_CAPS_VerticalVelocity_IsbL-0850_RLatLon0.03_PT002H.grib2 2026-05-04 18:10 1.1M
20260504T12Z_MSC_CAPS_VerticalVelocity_IsbL-1000_RLatLon0.03_PT002H.grib2 2026-05-04 18:10 1.4M
20260504T12Z_MSC_CAPS_WindDir_AGL-10m_RLatLon0.03_PT002H.grib2 2026-05-04 18:10 2.4M
20260504T12Z_MSC_CAPS_WindDir_AGL-120m_RLatLon0.03_PT002H.grib2 2026-05-04 18:10 1.2M
20260504T12Z_MSC_CAPS_WindDir_AGL-40m_RLatLon0.03_PT002H.grib2 2026-05-04 18:10 1.4M
20260504T12Z_MSC_CAPS_WindDir_AGL-80m_RLatLon0.03_PT002H.grib2 2026-05-04 18:10 1.3M
20260504T12Z_MSC_CAPS_WindDir_IsbL-0050_RLatLon0.03_PT002H.grib2 2026-05-04 18:10 1.1M
20260504T12Z_MSC_CAPS_WindDir_IsbL-0100_RLatLon0.03_PT002H.grib2 2026-05-04 18:10 1.0M
20260504T12Z_MSC_CAPS_WindDir_IsbL-0150_RLatLon0.03_PT002H.grib2 2026-05-04 18:10 1.1M
20260504T12Z_MSC_CAPS_WindDir_IsbL-0175_RLatLon0.03_PT002H.grib2 2026-05-04 18:10 1.1M
20260504T12Z_MSC_CAPS_WindDir_IsbL-0200_RLatLon0.03_PT002H.grib2 2026-05-04 18:10 1.1M
20260504T12Z_MSC_CAPS_WindDir_IsbL-0225_RLatLon0.03_PT002H.grib2 2026-05-04 18:10 1.1M
20260504T12Z_MSC_CAPS_WindDir_IsbL-0250_RLatLon0.03_PT002H.grib2 2026-05-04 18:10 1.1M
20260504T12Z_MSC_CAPS_WindDir_IsbL-0275_RLatLon0.03_PT002H.grib2 2026-05-04 18:10 1.1M
20260504T12Z_MSC_CAPS_WindDir_IsbL-0300_RLatLon0.03_PT002H.grib2 2026-05-04 18:10 1.1M
20260504T12Z_MSC_CAPS_WindDir_IsbL-0350_RLatLon0.03_PT002H.grib2 2026-05-04 18:10 1.1M
20260504T12Z_MSC_CAPS_WindDir_IsbL-0400_RLatLon0.03_PT002H.grib2 2026-05-04 18:10 1.1M
20260504T12Z_MSC_CAPS_WindDir_IsbL-0450_RLatLon0.03_PT002H.grib2 2026-05-04 18:10 1.2M
20260504T12Z_MSC_CAPS_WindDir_IsbL-0500_RLatLon0.03_PT002H.grib2 2026-05-04 18:10 1.2M
20260504T12Z_MSC_CAPS_WindDir_IsbL-0550_RLatLon0.03_PT002H.grib2 2026-05-04 18:10 1.3M
20260504T12Z_MSC_CAPS_WindDir_IsbL-0600_RLatLon0.03_PT002H.grib2 2026-05-04 18:10 1.2M
20260504T12Z_MSC_CAPS_WindDir_IsbL-0650_RLatLon0.03_PT002H.grib2 2026-05-04 18:10 1.3M
20260504T12Z_MSC_CAPS_WindDir_IsbL-0700_RLatLon0.03_PT002H.grib2 2026-05-04 18:10 1.4M
20260504T12Z_MSC_CAPS_WindDir_IsbL-0750_RLatLon0.03_PT002H.grib2 2026-05-04 18:10 1.5M
20260504T12Z_MSC_CAPS_WindDir_IsbL-0800_RLatLon0.03_PT002H.grib2 2026-05-04 18:10 1.6M
20260504T12Z_MSC_CAPS_WindDir_IsbL-0850_RLatLon0.03_PT002H.grib2 2026-05-04 18:10 1.7M
20260504T12Z_MSC_CAPS_WindDir_IsbL-0875_RLatLon0.03_PT002H.grib2 2026-05-04 18:10 1.8M
20260504T12Z_MSC_CAPS_WindDir_IsbL-0900_RLatLon0.03_PT002H.grib2 2026-05-04 18:10 1.9M
20260504T12Z_MSC_CAPS_WindDir_IsbL-0925_RLatLon0.03_PT002H.grib2 2026-05-04 18:10 1.9M
20260504T12Z_MSC_CAPS_WindDir_IsbL-0950_RLatLon0.03_PT002H.grib2 2026-05-04 18:10 2.0M
20260504T12Z_MSC_CAPS_WindDir_IsbL-0970_RLatLon0.03_PT002H.grib2 2026-05-04 18:10 2.1M
20260504T12Z_MSC_CAPS_WindDir_IsbL-0985_RLatLon0.03_PT002H.grib2 2026-05-04 18:10 2.2M
20260504T12Z_MSC_CAPS_WindDir_IsbL-1000_RLatLon0.03_PT002H.grib2 2026-05-04 18:10 2.3M
20260504T12Z_MSC_CAPS_WindDir_IsbL-1015_RLatLon0.03_PT002H.grib2 2026-05-04 18:10 2.4M
20260504T12Z_MSC_CAPS_WindGust-Max_AGL-10m_RLatLon0.03_PT002H.grib2 2026-05-04 18:10 2.5M
20260504T12Z_MSC_CAPS_WindGust-Min_AGL-10m_RLatLon0.03_PT002H.grib2 2026-05-04 18:10 2.3M
20260504T12Z_MSC_CAPS_WindGust_AGL-10m_RLatLon0.03_PT002H.grib2 2026-05-04 18:10 2.4M
20260504T12Z_MSC_CAPS_WindSpeed_AGL-10m_RLatLon0.03_PT002H.grib2 2026-05-04 18:10 2.1M
20260504T12Z_MSC_CAPS_WindSpeed_AGL-120m_RLatLon0.03_PT002H.grib2 2026-05-04 18:10 1.2M
20260504T12Z_MSC_CAPS_WindSpeed_AGL-40m_RLatLon0.03_PT002H.grib2 2026-05-04 18:10 1.6M
20260504T12Z_MSC_CAPS_WindSpeed_AGL-80m_RLatLon0.03_PT002H.grib2 2026-05-04 18:10 1.2M
20260504T12Z_MSC_CAPS_WindSpeed_IsbL-0050_RLatLon0.03_PT002H.grib2 2026-05-04 18:10 1.3M
20260504T12Z_MSC_CAPS_WindSpeed_IsbL-0100_RLatLon0.03_PT002H.grib2 2026-05-04 18:10 1.3M
20260504T12Z_MSC_CAPS_WindSpeed_IsbL-0150_RLatLon0.03_PT002H.grib2 2026-05-04 18:10 1.2M
20260504T12Z_MSC_CAPS_WindSpeed_IsbL-0175_RLatLon0.03_PT002H.grib2 2026-05-04 18:10 1.1M
20260504T12Z_MSC_CAPS_WindSpeed_IsbL-0200_RLatLon0.03_PT002H.grib2 2026-05-04 18:10 935K
20260504T12Z_MSC_CAPS_WindSpeed_IsbL-0225_RLatLon0.03_PT002H.grib2 2026-05-04 18:10 955K
20260504T12Z_MSC_CAPS_WindSpeed_IsbL-0250_RLatLon0.03_PT002H.grib2 2026-05-04 18:10 1.0M
20260504T12Z_MSC_CAPS_WindSpeed_IsbL-0275_RLatLon0.03_PT002H.grib2 2026-05-04 18:10 1.0M
20260504T12Z_MSC_CAPS_WindSpeed_IsbL-0300_RLatLon0.03_PT002H.grib2 2026-05-04 18:10 1.0M
20260504T12Z_MSC_CAPS_WindSpeed_IsbL-0350_RLatLon0.03_PT002H.grib2 2026-05-04 18:10 1.0M
20260504T12Z_MSC_CAPS_WindSpeed_IsbL-0400_RLatLon0.03_PT002H.grib2 2026-05-04 18:10 1.0M
20260504T12Z_MSC_CAPS_WindSpeed_IsbL-0450_RLatLon0.03_PT002H.grib2 2026-05-04 18:10 1.0M
20260504T12Z_MSC_CAPS_WindSpeed_IsbL-0500_RLatLon0.03_PT002H.grib2 2026-05-04 18:10 1.4M
20260504T12Z_MSC_CAPS_WindSpeed_IsbL-0550_RLatLon0.03_PT002H.grib2 2026-05-04 18:10 1.4M
20260504T12Z_MSC_CAPS_WindSpeed_IsbL-0600_RLatLon0.03_PT002H.grib2 2026-05-04 18:10 1.3M
20260504T12Z_MSC_CAPS_WindSpeed_IsbL-0650_RLatLon0.03_PT002H.grib2 2026-05-04 18:10 1.4M
20260504T12Z_MSC_CAPS_WindSpeed_IsbL-0700_RLatLon0.03_PT002H.grib2 2026-05-04 18:10 1.5M
20260504T12Z_MSC_CAPS_WindSpeed_IsbL-0750_RLatLon0.03_PT002H.grib2 2026-05-04 18:10 1.6M
20260504T12Z_MSC_CAPS_WindSpeed_IsbL-0800_RLatLon0.03_PT002H.grib2 2026-05-04 18:10 1.6M
20260504T12Z_MSC_CAPS_WindSpeed_IsbL-0850_RLatLon0.03_PT002H.grib2 2026-05-04 18:10 1.7M
20260504T12Z_MSC_CAPS_WindSpeed_IsbL-0875_RLatLon0.03_PT002H.grib2 2026-05-04 18:10 1.8M
20260504T12Z_MSC_CAPS_WindSpeed_IsbL-0900_RLatLon0.03_PT002H.grib2 2026-05-04 18:10 1.8M
20260504T12Z_MSC_CAPS_WindSpeed_IsbL-0925_RLatLon0.03_PT002H.grib2 2026-05-04 18:10 1.9M
20260504T12Z_MSC_CAPS_WindSpeed_IsbL-0950_RLatLon0.03_PT002H.grib2 2026-05-04 18:10 1.9M
20260504T12Z_MSC_CAPS_WindSpeed_IsbL-0970_RLatLon0.03_PT002H.grib2 2026-05-04 18:10 2.0M
20260504T12Z_MSC_CAPS_WindSpeed_IsbL-0985_RLatLon0.03_PT002H.grib2 2026-05-04 18:10 2.0M
20260504T12Z_MSC_CAPS_WindSpeed_IsbL-1000_RLatLon0.03_PT002H.grib2 2026-05-04 18:10 2.0M
20260504T12Z_MSC_CAPS_WindSpeed_IsbL-1015_RLatLon0.03_PT002H.grib2 2026-05-04 18:10 2.1M
20260504T12Z_MSC_CAPS_WindU_AGL-10m_RLatLon0.03_PT002H.grib2 2026-05-04 18:10 2.0M
20260504T12Z_MSC_CAPS_WindU_AGL-120m_RLatLon0.03_PT002H.grib2 2026-05-04 18:10 1.2M
20260504T12Z_MSC_CAPS_WindU_AGL-40m_RLatLon0.03_PT002H.grib2 2026-05-04 18:10 1.2M
20260504T12Z_MSC_CAPS_WindU_AGL-80m_RLatLon0.03_PT002H.grib2 2026-05-04 18:10 1.2M
20260504T12Z_MSC_CAPS_WindU_IsbL-0050_RLatLon0.03_PT002H.grib2 2026-05-04 18:10 966K
20260504T12Z_MSC_CAPS_WindU_IsbL-0100_RLatLon0.03_PT002H.grib2 2026-05-04 18:10 804K
20260504T12Z_MSC_CAPS_WindU_IsbL-0150_RLatLon0.03_PT002H.grib2 2026-05-04 18:10 927K
20260504T12Z_MSC_CAPS_WindU_IsbL-0175_RLatLon0.03_PT002H.grib2 2026-05-04 18:10 726K
20260504T12Z_MSC_CAPS_WindU_IsbL-0200_RLatLon0.03_PT002H.grib2 2026-05-04 18:10 869K
20260504T12Z_MSC_CAPS_WindU_IsbL-0225_RLatLon0.03_PT002H.grib2 2026-05-04 18:10 893K
20260504T12Z_MSC_CAPS_WindU_IsbL-0250_RLatLon0.03_PT002H.grib2 2026-05-04 18:10 702K
20260504T12Z_MSC_CAPS_WindU_IsbL-0275_RLatLon0.03_PT002H.grib2 2026-05-04 18:10 711K
20260504T12Z_MSC_CAPS_WindU_IsbL-0300_RLatLon0.03_PT002H.grib2 2026-05-04 18:10 720K
20260504T12Z_MSC_CAPS_WindU_IsbL-0350_RLatLon0.03_PT002H.grib2 2026-05-04 18:10 732K
20260504T12Z_MSC_CAPS_WindU_IsbL-0400_RLatLon0.03_PT002H.grib2 2026-05-04 18:10 956K
20260504T12Z_MSC_CAPS_WindU_IsbL-0450_RLatLon0.03_PT002H.grib2 2026-05-04 18:10 968K
20260504T12Z_MSC_CAPS_WindU_IsbL-0500_RLatLon0.03_PT002H.grib2 2026-05-04 18:10 1.0M
20260504T12Z_MSC_CAPS_WindU_IsbL-0550_RLatLon0.03_PT002H.grib2 2026-05-04 18:10 1.0M
20260504T12Z_MSC_CAPS_WindU_IsbL-0600_RLatLon0.03_PT002H.grib2 2026-05-04 18:10 927K
20260504T12Z_MSC_CAPS_WindU_IsbL-0650_RLatLon0.03_PT002H.grib2 2026-05-04 18:10 966K
20260504T12Z_MSC_CAPS_WindU_IsbL-0700_RLatLon0.03_PT002H.grib2 2026-05-04 18:10 1.0M
20260504T12Z_MSC_CAPS_WindU_IsbL-0750_RLatLon0.03_PT002H.grib2 2026-05-04 18:10 1.0M
20260504T12Z_MSC_CAPS_WindU_IsbL-0800_RLatLon0.03_PT002H.grib2 2026-05-04 18:10 1.1M
20260504T12Z_MSC_CAPS_WindU_IsbL-0850_RLatLon0.03_PT002H.grib2 2026-05-04 18:10 1.2M
20260504T12Z_MSC_CAPS_WindU_IsbL-0875_RLatLon0.03_PT002H.grib2 2026-05-04 18:10 1.2M
20260504T12Z_MSC_CAPS_WindU_IsbL-0900_RLatLon0.03_PT002H.grib2 2026-05-04 18:10 1.3M
20260504T12Z_MSC_CAPS_WindU_IsbL-0925_RLatLon0.03_PT002H.grib2 2026-05-04 18:10 1.3M
20260504T12Z_MSC_CAPS_WindU_IsbL-0950_RLatLon0.03_PT002H.grib2 2026-05-04 18:10 1.3M
20260504T12Z_MSC_CAPS_WindU_IsbL-0970_RLatLon0.03_PT002H.grib2 2026-05-04 18:10 1.4M
20260504T12Z_MSC_CAPS_WindU_IsbL-0985_RLatLon0.03_PT002H.grib2 2026-05-04 18:10 1.4M
20260504T12Z_MSC_CAPS_WindU_IsbL-1000_RLatLon0.03_PT002H.grib2 2026-05-04 18:10 1.8M
20260504T12Z_MSC_CAPS_WindU_IsbL-1015_RLatLon0.03_PT002H.grib2 2026-05-04 18:10 1.8M
20260504T12Z_MSC_CAPS_WindV_AGL-10m_RLatLon0.03_PT002H.grib2 2026-05-04 18:10 2.0M
20260504T12Z_MSC_CAPS_WindV_AGL-120m_RLatLon0.03_PT002H.grib2 2026-05-04 18:10 911K
20260504T12Z_MSC_CAPS_WindV_AGL-40m_RLatLon0.03_PT002H.grib2 2026-05-04 18:10 1.2M
20260504T12Z_MSC_CAPS_WindV_AGL-80m_RLatLon0.03_PT002H.grib2 2026-05-04 18:10 1.2M
20260504T12Z_MSC_CAPS_WindV_IsbL-0050_RLatLon0.03_PT002H.grib2 2026-05-04 18:10 795K
20260504T12Z_MSC_CAPS_WindV_IsbL-0100_RLatLon0.03_PT002H.grib2 2026-05-04 18:10 1.0M
20260504T12Z_MSC_CAPS_WindV_IsbL-0150_RLatLon0.03_PT002H.grib2 2026-05-04 18:10 837K
20260504T12Z_MSC_CAPS_WindV_IsbL-0175_RLatLon0.03_PT002H.grib2 2026-05-04 18:10 848K
20260504T12Z_MSC_CAPS_WindV_IsbL-0200_RLatLon0.03_PT002H.grib2 2026-05-04 18:10 866K
20260504T12Z_MSC_CAPS_WindV_IsbL-0225_RLatLon0.03_PT002H.grib2 2026-05-04 18:10 889K
20260504T12Z_MSC_CAPS_WindV_IsbL-0250_RLatLon0.03_PT002H.grib2 2026-05-04 18:10 910K
20260504T12Z_MSC_CAPS_WindV_IsbL-0275_RLatLon0.03_PT002H.grib2 2026-05-04 18:10 710K
20260504T12Z_MSC_CAPS_WindV_IsbL-0300_RLatLon0.03_PT002H.grib2 2026-05-04 18:10 720K
20260504T12Z_MSC_CAPS_WindV_IsbL-0350_RLatLon0.03_PT002H.grib2 2026-05-04 18:10 730K
20260504T12Z_MSC_CAPS_WindV_IsbL-0400_RLatLon0.03_PT002H.grib2 2026-05-04 18:10 735K
20260504T12Z_MSC_CAPS_WindV_IsbL-0450_RLatLon0.03_PT002H.grib2 2026-05-04 18:10 965K
20260504T12Z_MSC_CAPS_WindV_IsbL-0500_RLatLon0.03_PT002H.grib2 2026-05-04 18:10 1.0M
20260504T12Z_MSC_CAPS_WindV_IsbL-0550_RLatLon0.03_PT002H.grib2 2026-05-04 18:10 1.0M
20260504T12Z_MSC_CAPS_WindV_IsbL-0600_RLatLon0.03_PT002H.grib2 2026-05-04 18:10 924K
20260504T12Z_MSC_CAPS_WindV_IsbL-0650_RLatLon0.03_PT002H.grib2 2026-05-04 18:10 963K
20260504T12Z_MSC_CAPS_WindV_IsbL-0700_RLatLon0.03_PT002H.grib2 2026-05-04 18:10 1.0M
20260504T12Z_MSC_CAPS_WindV_IsbL-0750_RLatLon0.03_PT002H.grib2 2026-05-04 18:10 1.0M
20260504T12Z_MSC_CAPS_WindV_IsbL-0800_RLatLon0.03_PT002H.grib2 2026-05-04 18:10 1.1M
20260504T12Z_MSC_CAPS_WindV_IsbL-0850_RLatLon0.03_PT002H.grib2 2026-05-04 18:10 1.2M
20260504T12Z_MSC_CAPS_WindV_IsbL-0875_RLatLon0.03_PT002H.grib2 2026-05-04 18:10 1.2M
20260504T12Z_MSC_CAPS_WindV_IsbL-0900_RLatLon0.03_PT002H.grib2 2026-05-04 18:10 1.3M
20260504T12Z_MSC_CAPS_WindV_IsbL-0925_RLatLon0.03_PT002H.grib2 2026-05-04 18:10 1.3M
20260504T12Z_MSC_CAPS_WindV_IsbL-0950_RLatLon0.03_PT002H.grib2 2026-05-04 18:10 1.4M
20260504T12Z_MSC_CAPS_WindV_IsbL-0970_RLatLon0.03_PT002H.grib2 2026-05-04 18:10 1.4M
20260504T12Z_MSC_CAPS_WindV_IsbL-0985_RLatLon0.03_PT002H.grib2 2026-05-04 18:10 1.4M
20260504T12Z_MSC_CAPS_WindV_IsbL-1000_RLatLon0.03_PT002H.grib2 2026-05-04 18:10 1.8M
20260504T12Z_MSC_CAPS_WindV_IsbL-1015_RLatLon0.03_PT002H.grib2 2026-05-04 18:10 1.9M